Location: Azul
(36.7830°S, 59.8500°W)
Time: 13:32:44
(UTC-03:00)

ISS - Visible Passes

Search period start: 04 August 2021 00:00
Search period end: 14 August 2021 00:00
Orbit: 419 x 421 km, 51.6° (Epoch: 04 August)

Date Brightness Start Highest point End Pass type
(mag) Time Alt. Az. Time Alt. Az. Time Alt. Az.
04 Aug -1.0 06:34:40 10° S 06:35:51 11° SSE 06:37:01 10° SE visible
05 Aug -2.2 07:22:50 10° SSW 07:25:56 30° SSE 07:29:00 10° E visible
06 Aug -1.6 06:36:15 12° SSW 06:38:28 21° SSE 06:41:09 10° E visible
07 Aug -1.1 05:50:55 15° SSE 05:50:56 15° SSE 05:53:02 10° ESE visible
08 Aug -3.0 06:38:39 19° SSW 06:40:50 51° SE 06:44:10 10° ENE visible
09 Aug -2.2 05:53:29 31° SE 05:53:29 31° SE 05:56:31 10° E visible
10 Aug -0.2 05:08:24 11° ESE 05:08:24 11° ESE 05:08:38 10° E visible
10 Aug -3.3 06:41:24 26° WSW 06:42:56 46° NW 06:46:12 10° NNE visible
11 Aug -3.0 05:56:26 50° NE 05:56:26 50° NE 05:59:02 10° NE visible
12 Aug -0.3 05:11:34 10° ENE 05:11:34 10° ENE 05:11:37 10° ENE visible
12 Aug -1.7 06:44:35 14° NW 06:44:46 14° NW 06:46:37 10° NNW visible
13 Aug -1.2 05:59:49 13° N 05:59:49 13° N 06:00:25 10° N visible
